| time (UTC) | temp C | wind direction | speed KPH | gust KPH | rain 1hr cm | rain 24hr cm | rain mn cm | humidity % | barometer mb |
| 20260901080719 | 18 | 172 | 0.0 | 0.0 | 0.00 | 0.00 | 0.00 | 69 | 1018.0 |
| 20260901075721 | 18 | 172 | 0.0 | 0.0 | 0.00 | 0.00 | 0.00 | 70 | 1017.9 |
| 20260901074721 | 18 | 172 | 0.0 | 0.0 | 0.00 | 0.00 | 0.00 | 70 | 1018.0 |
| 20260901073719 | 18 | 172 | 0.0 | 0.0 | 0.00 | 0.00 | 0.00 | 70 | 1018.1 |
| 20260901072719 | 18 | 172 | 0.0 | 0.0 | 0.00 | 0.00 | 0.00 | 70 | 1018.2 |
| 20260901071717 | 18 | 172 | 0.0 | 0.0 | 0.00 | 0.00 | 0.00 | 70 | 1018.1 |
| 20260901070716 | 18 | 172 | 0.0 | 0.0 | 0.00 | 0.00 | 0.00 | 70 | 1018.2 |
| 20260901065712 | 18 | 172 | 0.0 | 0.0 | 0.00 | 0.00 | 0.00 | 70 | 1018.2 |
| 20260901064728 | 18 | 172 | 0.0 | 0.0 | 0.00 | 0.00 | 0.00 | 70 | 1018.4 |
| 20260901063713 | 18 | 172 | 0.0 | 0.0 | 0.00 | 0.00 | 0.00 | 69 | 1018.6 |
| 20260901062714 | 18 | 172 | 0.0 | 0.0 | 0.00 | 0.00 | 0.00 | 69 | 1018.5 |
| 20260901061713 | 18 | 172 | 0.0 | 0.0 | 0.00 | 0.00 | 0.00 | 69 | 1018.4 |
| 20260901061215 | 18 | 172 | 0.0 | 0.0 | 0.00 | 0.00 | 0.00 | 69 | 1018.4 |
| 20260901055713 | 18 | 172 | 0.0 | 0.0 | 0.00 | 0.00 | 0.00 | 70 | 1018.5 |
| 20260901054707 | 18 | 172 | 0.0 | 0.0 | 0.00 | 0.00 | 0.00 | 70 | 1018.6 |
| 20260901053707 | 18 | 172 | 0.0 | 1.6 | 0.00 | 0.00 | 0.00 | 70 | 1018.7 |
| 20260901052708 | 18 | 172 | 0.0 | 0.0 | 0.00 | 0.00 | 0.00 | 70 | 1018.6 |
| 20260901052208 | 18 | 172 | 0.0 | 0.0 | 0.00 | 0.00 | 0.00 | 70 | 1018.5 |
| 20260901050708 | 18 | 172 | 0.0 | 0.0 | 0.00 | 0.03 | 0.00 | 70 | 1018.6 |
| 20260901045708 | 18 | 172 | 0.0 | 0.0 | 0.00 | 0.08 | 0.00 | 69 | 1018.6 |
| 20260901044706 | 18 | 172 | 0.0 | 0.0 | 0.00 | 0.08 | 0.00 | 69 | 1018.6 |
| 20260901043705 | 18 | 172 | 0.0 | 0.0 | 0.00 | 0.08 | 0.00 | 70 | 1018.9 |
| 20260901042704 | 18 | 172 | 0.0 | 0.0 | 0.00 | 0.08 | 0.00 | 71 | 1019.0 |
| 20260901042205 | 18 | 172 | 0.0 | 0.0 | 0.00 | 0.08 | 0.00 | 72 | 1019.0 |
| 20260901040703 | 18 | 172 | 0.0 | 0.0 | 0.00 | 0.08 | 0.00 | 72 | 1019.0 |
| 20260901035702 | 18 | 172 | 0.0 | 0.0 | 0.00 | 0.08 | 0.08 | 72 | 1019.0 |
| 20260901034701 | 19 | 172 | 0.0 | 0.0 | 0.00 | 0.10 | 0.08 | 71 | 1019.0 |
| 20260901033701 | 19 | 172 | 0.0 | 0.0 | 0.00 | 0.13 | 0.08 | 71 | 1019.0 |
| 20260901032704 | 19 | 172 | 0.0 | 0.0 | 0.00 | 0.25 | 0.08 | 72 | 1019.1 |
| 20260901031702 | 19 | 172 | 0.0 | 0.0 | 0.00 | 0.25 | 0.08 | 72 | 1019.1 |
| 20260901030702 | 19 | 172 | 0.0 | 0.0 | 0.00 | 0.28 | 0.08 | 72 | 1019.0 |
| 20260901025704 | 19 | 172 | 0.0 | 0.0 | 0.00 | 0.30 | 0.08 | 72 | 1019.1 |
| 20260901025205 | 19 | 172 | 0.0 | 1.6 | 0.00 | 0.33 | 0.08 | 72 | 1019.1 |
| 20260901023702 | 19 | 167 | 0.0 | 0.0 | 0.00 | 0.33 | 0.08 | 72 | 1019.2 |
| 20260901022703 | 19 | 167 | 0.0 | 0.0 | 0.00 | 0.33 | 0.08 | 73 | 1019.3 |
| 20260901021702 | 19 | 167 | 0.0 | 0.0 | 0.00 | 0.33 | 0.08 | 74 | 1019.4 |
| 20260901020704 | 20 | 167 | 0.0 | 0.0 | 0.00 | 0.36 | 0.08 | 73 | 1019.3 |
| 20260901015704 | 20 | 167 | 0.0 | 0.0 | 0.00 | 0.36 | 0.08 | 74 | 1019.4 |
| 20260901014701 | 20 | 167 | 0.0 | 0.0 | 0.00 | 0.36 | 0.08 | 74 | 1019.2 |
| 20260901013703 | 20 | 167 | 0.0 | 0.0 | 0.00 | 0.36 | 0.08 | 73 | 1019.2 |
| 20260901013157 | 20 | 167 | 0.0 | 0.0 | 0.00 | 0.36 | 0.08 | 73 | 1019.3 |
| 20260901012157 | 20 | 167 | 0.0 | 1.6 | 0.00 | 0.36 | 0.08 | 73 | 1019.3 |
| 20260901011156 | 20 | 155 | 0.0 | 1.6 | 0.00 | 0.36 | 0.08 | 73 | 1019.2 |
| 20260901005656 | 20 | 155 | 0.0 | 0.0 | 0.00 | 0.36 | 0.08 | 73 | 1019.3 |
| 20260901004657 | 20 | 155 | 0.0 | 0.0 | 0.00 | 0.36 | 0.08 | 74 | 1019.2 |
| 20260901003656 | 20 | 155 | 0.0 | 1.6 | 0.00 | 0.36 | 0.08 | 74 | 1019.2 |
| 20260901002656 | 20 | 155 | 0.0 | 1.6 | 0.00 | 0.36 | 0.08 | 75 | 1019.2 |
| 20260901001655 | 20 | 155 | 0.0 | 0.0 | 0.00 | 0.36 | 0.08 | 75 | 1019.4 |
| 20260901001157 | 20 | 155 | 0.0 | 0.0 | 0.00 | 0.36 | 0.08 | 75 | 1019.4 |
| 20260831235651 | 20 | 155 | 0.0 | 0.0 | 0.00 | 0.36 | 0.08 | 75 | 1019.3 |
| 20260831234649 | 20 | 155 | 0.0 | 0.0 | 0.00 | 0.36 | 0.08 | 75 | 1019.4 |
| 20260831233702 | 20 | 155 | 0.0 | 0.0 | 0.00 | 0.36 | 0.08 | 75 | 1019.2 |
| 20260831233651 | 20 | 155 | 0.0 | 1.6 | 0.00 | 0.36 | 0.08 | 75 | 1019.3 |
| 20260831231650 | 21 | 155 | 0.0 | 1.6 | 0.00 | 0.36 | 0.08 | 75 | 1019.2 |
| 20260831230651 | 21 | 155 | 0.0 | 1.6 | 0.00 | 0.36 | 0.08 | 75 | 1019.3 |
| 20260831225649 | 21 | 155 | 0.0 | 1.6 | 0.00 | 0.36 | 0.08 | 75 | 1019.3 |
| 20260831224651 | 21 | 160 | 0.0 | 1.6 | 0.00 | 0.36 | 0.08 | 75 | 1019.3 |
| 20260831223650 | 21 | 150 | 0.0 | 1.6 | 0.00 | 0.36 | 0.08 | 75 | 1019.4 |
| 20260831222646 | 21 | 160 | 0.0 | 1.6 | 0.00 | 0.36 | 0.08 | 75 | 1019.4 |
| 20260831221644 | 22 | 163 | 0.0 | 1.6 | 0.00 | 0.36 | 0.08 | 74 | 1019.4 |
| 20260831220643 | 22 | 163 | 0.0 | 1.6 | 0.00 | 0.36 | 0.08 | 74 | 1019.5 |
| 20260831215644 | 22 | 166 | 0.0 | 1.6 | 0.00 | 0.36 | 0.08 | 73 | 1019.4 |
| 20260831214645 | 22 | 181 | 0.0 | 1.6 | 0.00 | 0.36 | 0.08 | 69 | 1019.4 |
| 20260831213644 | 23 | 195 | 0.0 | 1.6 | 0.00 | 0.36 | 0.08 | 67 | 1019.5 |
| 20260831212646 | 23 | 195 | 0.0 | 1.6 | 0.00 | 0.36 | 0.08 | 67 | 1019.4 |
| 20260831211643 | 23 | 162 | 0.0 | 1.6 | 0.00 | 0.36 | 0.08 | 66 | 1019.4 |
| 20260831210643 | 23 | 129 | 0.0 | 1.6 | 0.00 | 0.36 | 0.08 | 65 | 1019.3 |
| 20260831205638 | 24 | 136 | 0.0 | 1.6 | 0.00 | 0.36 | 0.08 | 62 | 1019.3 |
| 20260831204639 | 24 | 133 | 0.0 | 1.6 | 0.00 | 0.36 | 0.08 | 62 | 1019.3 |
| 20260831203637 | 23 | 136 | 0.0 | 1.6 | 0.00 | 0.36 | 0.08 | 61 | 1019.4 |
| 20260831202640 | 23 | 128 | 0.0 | 1.6 | 0.00 | 0.36 | 0.08 | 62 | 1019.4 |
| 20260831201638 | 24 | 112 | 0.0 | 1.6 | 0.00 | 0.36 | 0.08 | 62 | 1019.2 |
| 20260831200637 | 24 | 134 | 0.0 | 1.6 | 0.00 | 0.36 | 0.08 | 61 | 1019.2 |
| 20260831200140 | 24 | 183 | 0.0 | 8.0 | 0.00 | 0.36 | 0.08 | 61 | 1019.5 |
| 20260831195754 | 23 | 33 | 0.0 | 8.0 | 0.00 | 0.36 | 0.08 | 65 | 1019.4 |
| 20260831193638 | 23 | 67 | 1.6 | 8.0 | 0.00 | 0.36 | 0.08 | 66 | 1019.5 |
| 20260831192632 | 23 | 103 | 0.0 | 1.6 | 0.00 | 0.36 | 0.08 | 64 | 1019.5 |
| 20260831191631 | 23 | 113 | 0.0 | 6.4 | 0.00 | 0.36 | 0.08 | 65 | 1019.8 |
| 20260831190632 | 23 | 33 | 1.6 | 8.0 | 0.00 | 0.36 | 0.08 | 64 | 1019.8 |
| 20260831185633 | 23 | 108 | 0.0 | 1.6 | 0.00 | 0.36 | 0.08 | 64 | 1019.9 |
| 20260831184633 | 23 | 219 | 1.6 | 8.0 | 0.00 | 0.36 | 0.08 | 66 | 1020.1 |
| 20260831184136 | 23 | 70 | 0.0 | 8.0 | 0.00 | 0.36 | 0.08 | 66 | 1020.0 |
| 20260831182633 | 23 | 134 | 1.6 | 8.0 | 0.00 | 0.36 | 0.08 | 67 | 1019.9 |
| 20260831181634 | 23 | 57 | 1.6 | 6.4 | 0.00 | 0.36 | 0.08 | 67 | 1020.0 |
| 20260831180630 | 23 | 358 | 0.0 | 4.8 | 0.00 | 0.36 | 0.08 | 68 | 1020.2 |
| 20260831180129 | 23 | 71 | 1.6 | 8.0 | 0.00 | 0.36 | 0.08 | 67 | 1020.3 |
| 20260831174627 | 23 | 108 | 0.0 | 4.8 | 0.00 | 0.36 | 0.08 | 67 | 1020.4 |
| 20260831173628 | 23 | 102 | 1.6 | 8.0 | 0.00 | 0.36 | 0.08 | 66 | 1020.3 |
| 20260831172627 | 23 | 79 | 0.0 | 4.8 | 0.00 | 0.36 | 0.08 | 65 | 1020.3 |
| 20260831171626 | 23 | 79 | 1.6 | 9.7 | 0.00 | 0.36 | 0.08 | 64 | 1020.3 |
| 20260831171128 | 23 | 238 | 1.6 | 8.0 | 0.00 | 0.36 | 0.08 | 62 | 1020.4 |
| 20260831165627 | 23 | 92 | 1.6 | 11.3 | 0.00 | 0.36 | 0.08 | 64 | 1020.4 |
| 20260831164625 | 23 | 65 | 0.0 | 9.7 | 0.00 | 0.36 | 0.08 | 64 | 1020.6 |
| 20260831163626 | 23 | 31 | 0.0 | 4.8 | 0.00 | 0.36 | 0.08 | 65 | 1020.6 |
| 20260831162623 | 23 | 242 | 1.6 | 8.0 | 0.00 | 0.36 | 0.08 | 66 | 1020.6 |
| 20260831161625 | 23 | 78 | 1.6 | 9.7 | 0.00 | 0.36 | 0.08 | 65 | 1020.6 |
| 20260831160624 | 22 | 330 | 1.6 | 8.0 | 0.00 | 0.36 | 0.08 | 66 | 1020.6 |
| 20260831160125 | 22 | 79 | 1.6 | 8.0 | 0.00 | 0.36 | 0.08 | 67 | 1020.8 |
| 20260831155123 | 22 | 77 | 1.6 | 6.4 | 0.00 | 0.36 | 0.08 | 68 | 1021.0 |
| 20260831153622 | 22 | 76 | 1.6 | 9.7 | 0.00 | 0.36 | 0.08 | 68 | 1021.1 |
| 20260831152619 | 22 | 78 | 1.6 | 9.7 | 0.00 | 0.36 | 0.08 | 66 | 1021.2 |
| 20260831151620 | 21 | 162 | 3.2 | 9.7 | 0.00 | 0.36 | 0.08 | 70 | 1021.0 |
| 20260831150619 | 22 | 84 | 1.6 | 6.4 | 0.00 | 0.36 | 0.08 | 70 | 1021.0 |
| 20260831145619 | 21 | 51 | 1.6 | 6.4 | 0.00 | 0.36 | 0.08 | 68 | 1021.0 |
| 20260831144617 | 21 | 82 | 1.6 | 8.0 | 0.00 | 0.36 | 0.08 | 69 | 1021.0 |
| 20260831143616 | 21 | 80 | 1.6 | 9.7 | 0.00 | 0.36 | 0.08 | 71 | 1021.0 |
| 20260831142615 | 21 | 246 | 1.6 | 8.0 | 0.00 | 0.36 | 0.08 | 72 | 1020.9 |
| 20260831141617 | 21 | 338 | 1.6 | 6.4 | 0.00 | 0.36 | 0.08 | 72 | 1020.8 |
| 20260831140615 | 21 | 304 | 1.6 | 9.7 | 0.00 | 0.36 | 0.08 | 74 | 1020.8 |
| 20260831135616 | 21 | 90 | 1.6 | 11.3 | 0.00 | 0.36 | 0.08 | 75 | 1020.5 |
| 20260831134616 | 20 | 113 | 1.6 | 9.7 | 0.00 | 0.36 | 0.08 | 75 | 1020.6 |
| 20260831133616 | 20 | 84 | 3.2 | 11.3 | 0.00 | 0.36 | 0.08 | 75 | 1020.6 |
| 20260831131631 | 20 | 65 | 3.2 | 9.7 | 0.00 | 0.36 | 0.08 | 74 | 1020.5 |
| 20260831130616 | 20 | 73 | 1.6 | 9.7 | 0.00 | 0.36 | 0.08 | 73 | 1020.5 |
| 20260831125616 | 20 | 82 | 1.6 | 6.4 | 0.00 | 0.36 | 0.08 | 71 | 1020.6 |
| 20260831124616 | 19 | 68 | 1.6 | 9.7 | 0.00 | 0.36 | 0.08 | 70 | 1020.5 |
| 20260831123616 | 19 | 110 | 0.0 | 6.4 | 0.00 | 0.36 | 0.08 | 65 | 1020.4 |
| 20260831122616 | 18 | 82 | 1.6 | 8.0 | 0.00 | 0.36 | 0.08 | 61 | 1020.3 |
| 20260831121616 | 18 | 70 | 1.6 | 8.0 | 0.00 | 0.36 | 0.08 | 59 | 1020.2 |
| 20260831120617 | 18 | 103 | 0.0 | 4.8 | 0.00 | 0.36 | 0.08 | 59 | 1020.2 |
| 20260831115617 | 18 | 105 | 0.0 | 1.6 | 0.00 | 0.36 | 0.08 | 59 | 1020.2 |
| 20260831114615 | 18 | 96 | 0.0 | 1.6 | 0.00 | 0.36 | 0.08 | 59 | 1020.1 |
| 20260831113617 | 17 | 84 | 0.0 | 3.2 | 0.00 | 0.36 | 0.08 | 59 | 1020.0 |
| 20260831112616 | 17 | 228 | 0.0 | 1.6 | 0.00 | 0.36 | 0.08 | 59 | 1020.0 |
| 20260831111617 | 17 | 89 | 0.0 | 1.6 | 0.00 | 0.36 | 0.08 | 60 | 1019.9 |
| 20260831110617 | 17 | 70 | 0.0 | 0.0 | 0.00 | 0.36 | 0.08 | 60 | 1019.7 |
| 20260831105618 | 17 | 69 | 0.0 | 0.0 | 0.00 | 0.36 | 0.08 | 60 | 1019.7 |
| 20260831104617 | 17 | 69 | 0.0 | 0.0 | 0.00 | 0.36 | 0.08 | 60 | 1019.7 |
| 20260831103618 | 17 | 70 | 0.0 | 0.0 | 0.00 | 0.36 | 0.08 | 60 | 1019.6 |
| 20260831102615 | 17 | 70 | 0.0 | 0.0 | 0.00 | 0.36 | 0.08 | 60 | 1019.4 |
| 20260831101618 | 17 | 70 | 0.0 | 0.0 | 0.00 | 0.36 | 0.08 | 60 | 1019.2 |
| 20260831100615 | 17 | 69 | 0.0 | 1.6 | 0.00 | 0.36 | 0.08 | 60 | 1019.1 |
| 20260831095615 | 17 | 89 | 0.0 | 1.6 | 0.00 | 0.36 | 0.08 | 60 | 1018.9 |
| 20260831095117 | 17 | 221 | 0.0 | 0.0 | 0.00 | 0.36 | 0.08 | 60 | 1018.7 |
| 20260831093616 | 17 | 233 | 0.0 | 0.0 | 0.00 | 0.36 | 0.08 | 60 | 1018.7 |
| 20260831092616 | 17 | 233 | 0.0 | 0.0 | 0.00 | 0.36 | 0.08 | 59 | 1018.7 |
| 20260831091617 | 18 | 233 | 0.0 | 0.0 | 0.00 | 0.36 | 0.08 | 59 | 1018.6 |
| 20260831090615 | 18 | 233 | 0.0 | 0.0 | 0.00 | 0.36 | 0.08 | 59 | 1018.5 |
| 20260831085616 | 18 | 233 | 0.0 | 0.0 | 0.00 | 0.36 | 0.08 | 59 | 1018.5 |
| 20260831084616 | 18 | 233 | 0.0 | 0.0 | 0.00 | 0.36 | 0.08 | 59 | 1018.3 |
| 20260831083617 | 18 | 233 | 0.0 | 0.0 | 0.00 | 0.36 | 0.08 | 59 | 1018.3 |
| 20260831082616 | 18 | 233 | 0.0 | 0.0 | 0.00 | 0.36 | 0.08 | 59 | 1018.2 |
| 20260831081619 | 18 | 233 | 0.0 | 0.0 | 0.00 | 0.36 | 0.08 | 59 | 1018.1 |